Location: Brantley
(31.5822°N, 86.2569°W)
Time: 00:43:40
(UTC+00:00)

Courier 1B Rocket - Pass Details

Date: 19 February 2026
Orbit: 920 x 1201 km, 28.2° (Epoch: 10 March)

Event Time Altitude Azimuth Distance (km) Brightness Sun altitude
Rises 22:03:48 0° 215° (SW) 3,595 9.0 17.6°
Reaches altitude 10° 22:07:09 10° 199° (SSW) 2,623 8.0 16.9°
Maximum altitude 22:11:34 20° 154° (SSE) 1,979 6.7 16.1°
Drops below altitude 10° 22:15:57 10° 108° (ESE) 2,602 6.9 15.2°
Sets 22:19:14 0° 92° (E) 3,557 7.4 14.6°
